Lid_Strength_Index
13 16 18 17 17 17 17 19 19 17 14 16 17 17 15 14 15 15 14 14 13 12 11 11 8 8 5 4 3 3 3 3 3 3 3 3 3 2 3 2 2 2 2 2
15 17 15 14 15 16 17 19 19 17 15 16 17 17 15 15 15 14 14 13 13 12 12 11 10 9 6 5 4 4 3 3 3 3 2 2 3 3 3 2 2 2 1 1
18 16 14 15 16 17 18 19 19 19 17 17 18 19 18 14 13 13 12 12 12 12 12 12 11 11 9 6 6 4 4 3 2 2 2 2 3 3 3 2 2 2 1 2
16 15 15 16 17 17 20 16 17 17 19 21 16 21 19 17 15 14 13 12 12 12 12 11 11 11 10 7 6 6 4 3 3 2 2 3 4 4 3 3 2 2 2 2
17 16 17 18 16 16 17 15 16 16 18 19 19 21 18 17 17 14 12 11 11 11 11 11 10 10 10 7 6 6 5 4 4 3 2 3 3 3 3 3 3 3 3 2
15 13 15 16 14 14 13 15 16 17 18 21 18 20 18 18 17 15 13 11 10 10 10 10 9 9 9 8 6 5 5 5 4 4 4 4 4 4 4 4 4 4 3 3
16 15 14 13 16 14 15 17 21 21 22 21 18 20 17 17 14 14 12 11 11 13 12 11 10 9 9 9 7 6 5 5 5 5 4 4 5 5 5 5 5 5 4 4
20 18 15 13 16 17 17 17 21 24 24 22 18 20 17 16 14 13 12 13 12 13 13 13 13 12 11 9 9 7 6 5 5 5 5 5 5 4 5 5 5 5 5 5
19 17 15 14 14 15 17 19 16 19 21 23 19 17 17 15 14 14 14 13 13 12 12 13 13 13 13 12 11 9 8 7 6 6 6 6 6 6 6 5 5 4 4 4
18 19 15 15 14 14 16 15 20 20 24 22 20 19 17 17 16 15 15 14 13 13 12 12 12 12 12 12 12 11 10 9 8 6 6 6 6 6 6 7 7 6 5 5
17 18 17 16 17 16 16 18 17 18 18 22 25 20 15 16 15 15 15 13 13 13 12 12 12 11 11 11 11 11 11 11 10 9 8 6 6 6 6 6 6 6 6 6
16 18 21 17 15 16 16 17 17 20 21 20 21 20 13 15 15 14 14 12 12 12 12 12 12 11 11 11 11 11 11 11 10 10 9 9 9 7 6 6 6 6 6 5
15 19 23 19 18 16 18 17 16 16 18 21 21 20 14 15 14 12 12 12 13 12 13 12 11 11 11 11 11 11 11 11 10 10 10 10 10 10 9 8 7 6 6 6
11 17 18 21 19 17 18 16 16 18 19 19 18 17 14 12 12 12 12 14 13 13 12 12 11 11 11 10 10 10 10 10 10 10 10 10 9 10 10 9 9 8 7 7
15 21 18 16 15 16 16 17 16 18 17 19 18 17 14 13 12 13 13 13 13 12 11 11 11 11 10 10 10 10 9 9 10 10 10 10 10 9 9 9 9 8 8 8
16 20 21 22 16 16 17 16 16 16 16 16 16 16 12 13 14 14 13 12 12 11 11 11 11 11 11 11 10 9 10 9 9 10 9 9 9 9 9 9 9 9 8 8
16 17 18 19 17 17 22 17 15 16 15 15 17 15 14 14 13 13 13 12 12 11 11 11 11 11 11 11 10 11 10 10 9 9 9 9 9 9 9 9 9 9 9 8
16 17 15 18 17 25 17 13 13 14 13 13 13 13 12 12 11 11 11 12 12 11 10 10 10 10 10 10 9 9 9 9 9 9 9 8 8 9 9 9 9 9 9 9
12 15 16 17 19 17 14 13 14 14 14 12 13 12 11 10 11 11 8 9 9 10 9 9 9 9 10 9 9 9 9 9 9 9 9 8 8 8 8 9 9 8 8 8
14 12 13 15 18 20 16 13 11 12 16 11 10 11 11 10 14 12 7 8 8 7 7 8 8 8 8 8 8 8 7 8 8 8 8 8 8 8 9 9 8 8 8 8
20 18 15 15 16 15 12 11 10 15 15 10 10 9 10 11 10 9 8 8 7 7 8 7 7 8 8 7 7 7 7 8 7 7 7 7 7 8 8 9 8 8 8 8
17 18 19 16 16 17 11 11 13 10 9 9 9 9 9 9 9 8 8 8 7 7 7 7 7 8 7 6 6 7 7 6 7 7 7 7 7 7 7 8 8 8 8 8
17 14 16 14 14 9 8 9 8 8 9 9 10 9 9 9 9 8 8 7 7 8 8 7 8 7 6 6 7 7 6 6 6 7 7 7 6 6 7 8 8 8 8 8
15 12 14 13 13 11 9 8 8 8 8 8 8 8 8 8 8 8 7 8 8 8 8 8 8 8 7 7 7 7 6 6 6 7 7 7 6 6 6 6 7 8 8 8
14 12 13 13 12 10 10 10 9 8 8 7 7 7 7 7 7 8 8 8 8 8 8 8 8 8 8 8 8 7 7 7 7 7 6 6 6 6 6 6 6 7 6 6
12 12 13 15 12 11 12 9 9 9 8 7 7 7 7 7 7 8 8 8 8 8 8 8 7 8 8 7 7 7 6 6 7 7 7 6 6 5 6 6 6 5 4 4